KD5FHA Weather Reports


time (UTC)temp
F
wind
direction
speed
knots
gust
knots
rain 1hr
in
rain 24hr
in
rain mn
in
humidity
%
barometer
mb
20260509045110 71 176 1.7 1.7 0.00 0.13 0.13 91 1011.1
20260509044608 70 144 0.9 0.9 0.00 0.13 0.13 91 1011.2
20260509044105 71 136 0.0 1.7 0.00 0.13 0.13 91 1011.1
20260509043601 71 158 0.9 0.9 0.00 0.13 0.13 91 1011.4
20260509043057 71 50 0.0 0.9 0.00 0.13 0.13 91 1011.6
20260509042553 71 31 0.0 1.7 0.00 0.13 0.13 90 1011.7
20260509042049 71 50 0.9 1.7 0.00 0.13 0.13 90 1011.6
20260509041546 71 6 0.0 0.9 0.00 0.13 0.13 90 1011.4
20260509041044 71 36 1.7 1.7 0.00 0.13 0.13 89 1011.3
20260509040542 71 24 1.7 1.7 0.00 0.13 0.13 89 1011.3
20260509040039 72 87 0.9 1.7 0.00 0.13 0.13 88 1010.7
20260509035536 72 122 0.9 2.6 0.00 0.13 0.13 88 1010.8
20260509035032 72 113 0.9 1.7 0.00 0.13 0.13 87 1010.6
20260509034531 72 202 0.0 1.7 0.00 0.13 0.13 87 1010.8
20260509034027 72 89 0.0 1.7 0.00 0.13 0.13 86 1010.8
20260509033524 72 144 0.0 3.5 0.00 0.13 0.13 86 1010.7
20260509033016 72 110 0.9 1.7 0.00 0.13 0.13 86 1010.8
20260509032513 73 192 2.6 3.5 0.00 0.13 0.13 85 1010.6
20260509032010 73 128 0.9 1.7 0.00 0.13 0.13 85 1010.5
20260509031507 73 118 0.9 1.7 0.00 0.13 0.13 85 1010.6
20260509031005 73 112 0.0 1.7 0.00 0.13 0.13 85 1010.7
20260509030502 73 107 0.9 1.7 0.00 0.13 0.13 84 1010.6
20260509025959 73 120 0.0 1.7 0.00 0.13 0.13 84 1010.3
20260509025454 73 178 1.7 5.2 0.00 0.13 0.13 84 1010.0
20260509024950 73 159 2.6 4.3 0.00 0.13 0.13 84 1009.9
20260509024446 73 140 0.9 2.6 0.00 0.13 0.13 84 1010.0
20260509023943 73 132 0.0 0.9 0.00 0.13 0.13 84 1010.1
20260509023441 73 143 0.0 0.9 0.00 0.13 0.13 84 1010.0
20260509022937 73 142 0.0 1.7 0.00 0.13 0.13 84 1010.0
20260509022434 73 116 0.0 0.9 0.00 0.13 0.13 84 1010.3
20260509021932 73 117 0.0 0.9 0.00 0.13 0.13 84 1010.1
20260509021428 73 127 0.0 0.9 0.00 0.13 0.13 83 1010.0
20260509020926 73 102 0.0 1.7 0.00 0.13 0.13 83 1010.2
20260509020424 73 157 0.0 0.9 0.00 0.13 0.13 83 1010.0
20260509015921 73 136 0.0 0.9 0.00 0.13 0.13 83 1009.9
20260509015420 73 113 0.0 0.0 0.00 0.13 0.13 83 1010.0
20260509014915 73 103 0.0 0.0 0.00 0.13 0.13 82 1009.9
20260509014413 74 89 0.0 1.7 0.00 0.13 0.13 82 1009.8
20260509013909 74 182 0.9 1.7 0.00 0.13 0.13 82 1009.8
20260509013406 74 121 0.9 0.9 0.00 0.13 0.13 82 1009.5
20260509012901 74 157 0.0 1.7 0.00 0.13 0.13 82 1009.5
20260509012358 74 105 0.0 1.7 0.00 0.13 0.13 82 1009.6
20260509011856 74 89 0.0 1.7 0.00 0.13 0.13 82 1009.6
20260509011353 74 107 0.0 1.7 0.00 0.13 0.13 82 1009.3
20260509010851 74 152 0.0 0.9 0.00 0.13 0.13 82 1009.2
20260509010348 74 178 0.9 1.7 0.00 0.13 0.13 82 1009.2
20260509005845 74 124 0.0 0.9 0.00 0.13 0.13 81 1009.3
20260509005343 74 177 0.9 1.7 0.00 0.13 0.13 81 1009.1
20260509004843 74 141 0.0 0.9 0.00 0.13 0.13 81 1009.3
20260509004340 74 117 0.0 0.9 0.00 0.13 0.13 81 1009.3
20260509003837 74 156 0.0 0.9 0.00 0.13 0.13 81 1009.2
20260509003335 74 165 0.9 1.7 0.00 0.13 0.13 81 1009.0
20260509002832 75 102 0.0 1.7 0.00 0.13 0.13 80 1009.1
20260509002329 75 75 0.0 0.0 0.00 0.13 0.13 79 1009.1
20260509001827 75 95 0.0 0.0 0.00 0.13 0.13 79 1009.1
20260509001323 75 89 0.0 0.0 0.00 0.13 0.13 79 1009.0
20260509000821 75 50 0.0 0.0 0.00 0.13 0.13 79 1009.2
20260509000318 75 0 0.0 0.9 0.00 0.13 0.13 79 1009.1
20260508235814 75 62 0.0 0.9 0.00 0.13 0.13 78 1009.2
20260508235311 75 86 0.0 1.7 0.00 0.13 0.13 78 1009.3
20260508234809 75 141 0.0 0.9 0.00 0.13 0.13 79 1009.2
20260508234259 74 150 0.0 1.7 0.00 0.13 0.13 79 1009.2
20260508233758 75 154 0.0 1.7 0.00 0.13 0.13 79 1009.3
20260508233257 75 105 0.0 2.6 0.00 0.13 0.13 79 1009.2
20260508232753 75 131 1.7 1.7 0.00 0.13 0.13 78 1009.3
20260508232250 75 104 0.9 5.2 0.00 0.13 0.13 78 1009.3
20260508231748 75 119 0.9 1.7 0.00 0.13 0.13 77 1009.3
20260508231244 75 124 1.7 3.5 0.00 0.13 0.13 76 1009.2
20260508230741 76 95 0.9 5.2 0.00 0.13 0.13 76 1009.2
20260508230237 76 135 0.9 2.6 0.00 0.13 0.13 76 1009.3
20260508225735 75 101 0.0 5.2 0.00 0.13 0.13 77 1009.2
20260508225232 77 192 1.7 6.1 0.00 0.13 0.13 75 1009.2
20260508224729 77 179 3.5 3.5 0.00 0.13 0.13 75 1009.4
20260508224227 75 124 0.9 3.5 0.00 0.13 0.13 77 1009.3
20260508223724 75 113 2.6 3.5 0.00 0.13 0.13 76 1009.2
20260508223221 75 180 1.7 5.2 0.00 0.13 0.13 77 1009.2
20260508222719 74 139 0.9 8.7 0.00 0.13 0.13 77 1009.4
20260508222216 75 92 0.9 2.6 0.00 0.13 0.13 78 1009.4
20260508221712 74 195 1.7 6.1 0.00 0.13 0.13 78 1009.5
20260508221208 75 200 7.8 8.7 0.00 0.13 0.13 75 1009.5
20260508220704 74 96 0.9 2.6 0.00 0.13 0.13 79 1009.4
20260508220201 73 199 2.6 4.3 0.00 0.13 0.13 80 1009.6
20260508215658 73 197 2.6 3.5 0.00 0.13 0.13 79 1009.6
20260508215154 72 195 0.9 1.7 0.00 0.13 0.13 80 1010.1
20260508214651 71 165 0.0 3.5 0.00 0.13 0.13 83 1010.1
20260508214149 71 156 0.0 1.7 0.00 0.13 0.13 86 1010.2
20260508213645 71 195 1.7 1.7 0.00 0.13 0.13 86 1010.2
20260508213141 69 208 0.9 1.7 0.00 0.13 0.13 89 1010.3
20260508212638 69 157 0.0 1.7 0.00 0.13 0.13 91 1010.4
20260508212135 69 224 0.0 0.0 0.00 0.13 0.13 91 1010.6
20260508211635 68 13 0.0 2.6 0.00 0.13 0.13 91 1010.6
20260508211131 68 38 0.0 1.7 0.00 0.13 0.13 92 1010.6
20260508210628 68 290 1.7 3.5 0.00 0.13 0.13 92 1010.8
20260508210126 68 312 2.6 4.3 0.00 0.13 0.13 91 1010.8
20260508205623 67 318 2.6 6.1 0.00 0.13 0.13 92 1010.8
20260508205119 67 340 0.0 3.5 0.00 0.13 0.13 92 1010.4
20260508204615 66 356 1.7 7.8 0.07 0.13 0.13 93 1009.5
20260508204112 66 170 2.6 7.8 0.38 0.13 0.13 93 1009.0
20260508203608 66 85 1.7 3.5 0.42 0.11 0.11 92 1009.4
20260508203104 66 155 3.5 5.2 0.31 0.06 0.06 90 1010.7
20260508202600 67 180 2.6 4.3 0.21 0.04 0.04 87 1010.9
20260508202058 69 135 2.6 4.3 0.07 0.01 0.01 81 1011.3
20260508201554 69 138 1.7 5.2 0.02 0.00 0.00 78 1011.5
20260508201051 70 191 4.3 7.8 0.00 0.00 0.00 75 1011.7
20260508200548 70 172 1.7 8.7 0.00 0.00 0.00 74 1011.9
20260508200044 71 165 2.6 5.2 0.00 0.00 0.00 73 1012.2
20260508195541 71 218 2.6 9.6 0.00 0.00 0.00 73 1011.8
20260508195037 71 207 6.1 6.1 0.00 0.00 0.00 72 1012.0
20260508194534 71 202 4.3 8.7 0.00 0.00 0.00 73 1012.2
20260508194031 71 195 5.2 9.6 0.00 0.00 0.00 72 1011.9
20260508193527 71 192 5.2 8.7 0.00 0.00 0.00 71 1012.0
20260508193024 72 141 0.9 7.8 0.00 0.00 0.00 69 1012.1
20260508192521 73 204 3.5 7.8 0.00 0.00 0.00 67 1011.8
20260508192018 73 112 0.9 6.1 0.00 0.00 0.00 68 1011.9
20260508191515 73 168 1.7 2.6 0.00 0.00 0.00 68 1011.9
20260508191011 72 152 2.6 10.4 0.00 0.00 0.00 68 1012.1
20260508190509 71 95 0.0 9.6 0.00 0.00 0.00 68 1012.2
20260508190005 71 194 6.1 7.0 0.00 0.00 0.00 68 1012.4
20260508185502 71 171 3.5 5.2 0.00 0.00 0.00 68 1012.3
20260508185000 71 148 3.5 9.6 0.00 0.00 0.00 68 1012.4
20260508184457 72 187 3.5 5.2 0.00 0.00 0.00 66 1012.3
20260508183954 73 132 1.7 7.0 0.00 0.00 0.00 67 1012.4
20260508183450 73 189 5.2 7.8 0.00 0.00 0.00 66 1012.4
20260508182945 72 181 4.3 4.3 0.00 0.00 0.00 67 1012.4
20260508182443 72 152 1.7 5.2 0.00 0.00 0.00 68 1012.8
20260508181944 73 157 3.5 5.2 0.00 0.00 0.00 67 1012.8
20260508181440 73 93 0.0 2.6 0.00 0.00 0.00 66 1012.7
20260508180938 73 161 4.3 4.3 0.00 0.00 0.00 66 1012.9
20260508180435 74 183 1.7 6.1 0.00 0.00 0.00 65 1012.9
20260508175930 75 151 0.0 2.6 0.00 0.00 0.00 63 1012.9
20260508175427 77 145 1.7 3.5 0.00 0.00 0.00 62 1012.8
20260508174926 75 137 0.9 4.3 0.00 0.00 0.00 64 1012.7
20260508174423 74 143 1.7 4.3 0.00 0.00 0.00 65 1012.7
20260508173919 74 129 1.7 1.7 0.00 0.00 0.00 65 1013.0
20260508173416 73 134 1.7 4.3 0.00 0.00 0.00 66 1013.0
20260508172912 74 140 0.9 1.7 0.00 0.00 0.00 65 1013.4
20260508172410 73 136 0.0 1.7 0.00 0.00 0.00 66 1013.4
20260508171905 73 165 0.0 1.7 0.00 0.00 0.00 66 1013.5
20260508171402 72 89 0.0 3.5 0.00 0.00 0.00 67 1013.6
20260508170859 73 109 0.9 4.3 0.00 0.00 0.00 66 1013.7
20260508170357 72 129 1.7 1.7 0.00 0.00 0.00 66 1013.7
20260508165853 73 136 0.9 8.7 0.00 0.00 0.00 67 1013.7
20260508165351 74 131 0.0 3.5 0.00 0.00 0.00 64 1013.6
20260508164846 73 146 2.6 5.2 0.00 0.00 0.00 65 1013.6
20260508164344 74 133 0.0 2.6 0.00 0.00 0.00 63 1013.7
20260508163841 73 84 0.9 1.7 0.00 0.00 0.00 65 1013.7
20260508163339 73 34 1.7 2.6 0.00 0.00 0.00 64 1013.6
20260508162834 72 113 0.0 2.6 0.00 0.00 0.00 67 1014.0
20260508162332 72 98 1.7 2.6 0.00 0.00 0.00 64 1013.9
20260508161829 73 113 0.9 2.6 0.00 0.00 0.00 65 1013.9
20260508161326 72 108 0.0 1.7 0.00 0.00 0.00 66 1014.1
20260508160823 71 136 1.7 4.3 0.00 0.00 0.00 68 1014.4
20260508160322 70 72 0.9 1.7 0.00 0.00 0.00 70 1014.3
20260508155818 69 88 0.9 1.7 0.00 0.00 0.00 71 1014.5
20260508155315 68 106 0.0 1.7 0.00 0.00 0.00 72 1014.7
20260508154812 68 118 0.9 2.6 0.00 0.00 0.00 72 1014.7
20260508154309 67 98 0.9 1.7 0.00 0.00 0.00 73 1014.9
20260508153805 67 88 0.9 1.7 0.00 0.00 0.00 74 1015.1
20260508153303 66 108 0.9 1.7 0.00 0.00 0.00 74 1014.9
20260508152759 66 110 0.9 1.7 0.00 0.00 0.00 73 1015.0
20260508152255 66 121 1.7 3.5 0.00 0.00 0.00 73 1015.2
20260508151752 66 176 1.7 1.7 0.00 0.00 0.00 73 1015.2
20260508151249 66 104 0.0 1.7 0.00 0.00 0.00 73 1015.2
20260508150745 66 96 1.7 3.5 0.00 0.00 0.00 73 1015.0
20260508150242 66 182 1.7 1.7 0.00 0.00 0.00 73 1015.0
20260508145738 67 137 2.6 3.5 0.00 0.00 0.00 72 1015.2
20260508145234 67 105 0.9 1.7 0.00 0.00 0.00 72 1015.0
20260508144731 67 121 0.0 1.7 0.00 0.00 0.00 72 1015.0
20260508144230 67 86 0.9 2.6 0.00 0.00 0.00 72 1014.8
20260508143727 67 88 0.9 1.7 0.00 0.00 0.00 73 1014.9
20260508143224 67 100 0.0 1.7 0.00 0.00 0.00 73 1015.1
20260508142720 67 89 0.0 1.7 0.00 0.00 0.00 73 1015.0
20260508142217 67 94 0.9 1.7 0.00 0.00 0.00 72 1015.2
20260508141713 67 107 0.9 1.7 0.00 0.00 0.00 72 1015.1
20260508141211 66 79 0.9 1.7 0.00 0.00 0.00 72 1015.2
20260508140708 66 98 0.0 1.7 0.00 0.00 0.00 73 1015.2
20260508140205 66 98 0.9 1.7 0.00 0.00 0.00 72 1015.4
20260508135701 66 113 0.9 1.7 0.00 0.00 0.00 73 1015.2
20260508135201 66 89 0.0 2.6 0.00 0.00 0.00 74 1015.1
20260508134658 65 81 1.7 1.7 0.00 0.00 0.00 75 1014.9
20260508134155 66 103 0.9 1.7 0.00 0.00 0.00 72 1015.2
20260508133652 67 127 0.0 1.7 0.00 0.00 0.00 72 1015.1
20260508133149 67 81 1.7 1.7 0.00 0.00 0.00 73 1015.2
20260508132647 65 97 0.9 1.7 0.00 0.00 0.00 76 1015.0
20260508132144 64 112 0.9 1.7 0.00 0.00 0.00 79 1015.1
20260508131639 63 89 0.0 1.7 0.00 0.00 0.00 80 1015.1
20260508131136 63 102 1.7 1.7 0.00 0.00 0.00 80 1015.2
20260508130633 62 166 0.9 1.7 0.00 0.00 0.00 81 1015.4
20260508130131 62 71 0.9 1.7 0.00 0.00 0.00 82 1015.4
20260508125631 62 124 1.7 1.7 0.00 0.00 0.00 83 1015.6
20260508125128 61 127 0.0 1.7 0.00 0.00 0.00 84 1015.5
20260508124626 61 68 0.9 2.6 0.00 0.00 0.00 86 1015.6
20260508124123 60 64 0.9 2.6 0.00 0.00 0.00 88 1015.6
20260508123621 60 31 1.7 2.6 0.00 0.00 0.00 89 1015.6
20260508123119 59 359 1.7 3.5 0.00 0.00 0.00 91 1015.4
20260508122615 59 53 1.7 1.7 0.00 0.00 0.00 92 1015.2
20260508122112 59 63 1.7 2.6 0.00 0.00 0.00 92 1015.2
20260508121610 58 94 1.7 1.7 0.00 0.00 0.00 92 1015.2
20260508121108 58 329 0.0 2.6 0.00 0.00 0.00 92 1015.4
20260508120605 58 33 0.9 2.6 0.00 0.00 0.00 91 1015.0
20260508120103 58 7 1.7 2.6 0.00 0.00 0.00 91 1015.2
20260508115600 58 55 0.0 1.7 0.00 0.00 0.00 91 1015.1
20260508115057 58 85 0.0 1.7 0.00 0.00 0.00 90 1014.9
20260508114554 58 82 0.0 1.7 0.00 0.00 0.00 90 1015.2
20260508114050 58 121 0.0 1.7 0.00 0.00 0.00 90 1015.4
20260508113548 58 22 1.7 2.6 0.00 0.00 0.00 90 1015.1
20260508113046 58 86 0.0 1.7 0.00 0.00 0.00 90 1015.2
20260508112542 58 36 1.7 2.6 0.00 0.00 0.00 90 1015.5
20260508112039 58 153 0.0 1.7 0.00 0.00 0.00 89 1015.6
20260508111536 59 41 2.6 3.5 0.00 0.00 0.00 89 1015.4
20260508111032 59 354 1.7 2.6 0.00 0.00 0.00 88 1015.5
20260508110531 59 131 1.7 1.7 0.00 0.00 0.00 87 1015.4
20260508110026 59 92 0.9 2.6 0.00 0.00 0.00 87 1015.2
20260508105521 59 137 0.9 1.7 0.00 0.00 0.00 88 1014.9
20260508105019 59 171 1.7 3.5 0.00 0.00 0.00 89 1015.2
20260508104517 58 170 1.7 3.5 0.00 0.00 0.00 91 1015.2
20260508104013 58 250 0.0 2.6 0.00 0.00 0.00 93 1015.0
20260508103510 58 122 0.9 1.7 0.00 0.00 0.00 93 1014.9
20260508103007 58 179 1.7 2.6 0.00 0.00 0.00 93 1014.7
20260508102505 58 191 3.5 3.5 0.00 0.00 0.00 93 1014.9
20260508102002 58 179 1.7 2.6 0.00 0.00 0.00 92 1015.0
20260508101500 58 187 1.7 1.7 0.00 0.00 0.00 92 1014.8
20260508100956 58 157 0.9 2.6 0.00 0.00 0.00 93 1014.7
20260508100455 58 128 0.9 0.9 0.00 0.00 0.00 93 1014.7
20260508095951 58 150 0.0 0.0 0.00 0.00 0.00 93 1014.6
20260508095449 58 142 0.0 0.0 0.00 0.00 0.00 92 1014.8
20260508094945 58 80 0.0 1.7 0.00 0.00 0.00 92 1014.8
20260508094442 58 48 1.7 1.7 0.00 0.00 0.00 92 1014.8
20260508093939 58 42 1.7 1.7 0.00 0.00 0.00 91 1014.6
20260508093436 59 68 0.9 1.7 0.00 0.00 0.00 91 1014.9
20260508092934 59 86 0.9 1.7 0.00 0.00 0.00 91 1014.9
20260508092432 59 95 0.9 1.7 0.00 0.00 0.00 91 1014.6
20260508091930 59 184 1.7 1.7 0.00 0.00 0.00 91 1014.8
20260508091426 59 131 0.9 1.7 0.00 0.00 0.00 91 1014.7
20260508090923 59 101 0.9 1.7 0.00 0.00 0.00 91 1014.9
20260508090422 59 84 0.9 0.9 0.00 0.00 0.00 91 1014.9
20260508085917 59 126 0.0 0.9 0.00 0.00 0.00 91 1015.1
20260508085414 59 52 1.7 1.7 0.00 0.00 0.00 90 1014.9
20260508084911 59 27 1.7 1.7 0.00 0.00 0.00 90 1015.0
20260508084408 59 83 0.9 1.7 0.00 0.00 0.00 90 1014.8
20260508083906 59 103 0.0 0.9 0.00 0.00 0.00 90 1014.9
20260508083403 59 98 0.0 1.7 0.00 0.00 0.00 89 1014.8
20260508082902 59 98 0.9 1.7 0.00 0.00 0.00 89 1014.9
20260508082400 59 72 0.9 1.7 0.00 0.00 0.00 89 1015.1
20260508081858 59 34 1.7 1.7 0.00 0.00 0.00 88 1015.1
20260508081354 60 89 0.0 0.9 0.00 0.00 0.00 88 1015.4
20260508080851 60 89 0.9 0.9 0.00 0.00 0.00 87 1015.5
20260508080349 60 89 0.0 0.9 0.00 0.00 0.00 87 1015.7
20260508075845 60 84 0.9 0.9 0.00 0.00 0.00 86 1015.9
20260508075342 61 102 0.0 0.9 0.00 0.00 0.00 86 1016.2
20260508074840 61 89 0.9 0.9 0.00 0.00 0.00 85 1016.1
20260508074337 61 76 0.0 0.9 0.00 0.00 0.00 86 1016.0
20260508073834 60 136 0.0 0.9 0.00 0.00 0.00 86 1016.3
20260508073332 60 303 0.0 0.9 0.00 0.00 0.00 87 1016.2
20260508072828 60 37 0.0 0.9 0.00 0.00 0.00 88 1016.3
20260508072325 60 40 0.0 1.7 0.00 0.00 0.00 89 1016.1
20260508071822 60 32 0.0 1.7 0.00 0.00 0.00 89 1016.0
20260508071320 60 25 1.7 1.7 0.00 0.00 0.00 89 1016.0
20260508070817 60 29 1.7 1.7 0.00 0.00 0.00 89 1015.8
20260508070316 60 25 0.9 1.7 0.00 0.00 0.00 89 1015.9
20260508065813 60 36 0.9 1.7 0.00 0.00 0.00 89 1015.9
20260508065311 59 27 0.0 0.0 0.00 0.00 0.00 89 1015.7
20260508064809 59 139 0.0 0.0 0.00 0.00 0.00 89 1016.0
20260508064306 59 39 0.0 1.7 0.00 0.00 0.00 89 1015.9
20260508063803 59 66 0.0 0.9 0.00 0.00 0.00 89 1016.1
20260508063302 59 55 0.9 1.7 0.00 0.00 0.00 89 1016.1
20260508062758 59 49 0.9 1.7 0.00 0.00 0.00 89 1016.2
20260508062256 59 41 0.9 1.7 0.00 0.00 0.00 89 1016.2
20260508061752 59 70 0.0 0.9 0.00 0.00 0.00 89 1016.1
20260508061249 59 176 0.9 1.7 0.00 0.00 0.00 89 1016.2
20260508060746 59 146 0.0 0.9 0.00 0.00 0.00 89 1016.4
20260508060244 59 69 0.0 0.9 0.00 0.00 0.00 88 1016.6
20260508055739 59 156 0.0 0.9 0.00 0.00 0.00 88 1016.6
20260508055237 59 155 0.0 0.9 0.00 0.00 0.00 88 1016.6
20260508054733 59 172 0.9 0.9 0.00 0.00 0.00 88 1016.7
20260508054231 59 49 0.0 0.9 0.00 0.00 0.00 87 1016.7
20260508053728 60 161 0.9 1.7 0.00 0.00 0.00 87 1016.6
20260508053225 60 154 0.0 0.9 0.00 0.00 0.00 87 1016.5
20260508052722 60 147 0.0 0.0 0.00 0.00 0.00 86 1016.8
20260508052219 60 172 0.9 1.7 0.00 0.00 0.00 86 1016.8
20260508051715 60 148 0.0 0.9 0.00 0.00 0.00 86 1016.8
20260508051211 60 166 0.9 1.7 0.00 0.00 0.00 86 1016.7
20260508050708 60 28 0.0 0.9 0.00 0.00 0.00 86 1016.6
20260508050205 60 148 0.0 0.0 0.00 0.00 0.00 86 1016.8
20260508045700 60 36 0.0 0.0 0.00 0.00 0.00 85 1016.4